When you browse on this site, cookies collect data to enhance your experience and personalize the content and advertising you see.
Visit our Privacy Policy to learn more. By continuing to use the site, you agree to this use of cookies and data.
  • In Österreich
  • Länderverzeichnis
  • Für 7 Tage
  • Wassertemperatur
  • Satellitenkarten
  • Wetterkarte
  • News
  • Widgets
  • user-avatar
    Anmelden

    Stündliche Wetter Granica

    Heute, 17 Februar, Sonntag

    Zeit Temperatur Niederschläge Wind Luftdruck Luftfeuchtigkeit
    00:00 +3°C° 0 mm 4 m/S 758 mmHg 65%
    01:00 +3°C° 0 mm 4 m/S 758 mmHg 70%
    02:00 +3°C° 0 mm 4 m/S 758 mmHg 74%
    03:00 +1°C° 0 mm 4 m/S 758 mmHg 78%
    04:00 +1°C° 0 mm 4 m/S 758 mmHg 82%
    05:00 +1°C° 0 mm 4 m/S 758 mmHg 84%
    06:00 0°C° 0 mm 4 m/S 758 mmHg 87%
    07:00 +1°C° 0 mm 3 m/S 758 mmHg 89%
    08:00 +1°C° 0 mm 4 m/S 758 mmHg 85%
    09:00 +3°C° 0 mm 4 m/S 758 mmHg 80%
    10:00 +5°C° 0 mm 4 m/S 758 mmHg 76%
    11:00 +6°C° 0 mm 4 m/S 758 mmHg 73%
    12:00 +7°C° 0 mm 4 m/S 758 mmHg 69%
    13:00 +8°C° 0 mm 4 m/S 758 mmHg 66%
    14:00 +8°C° 0 mm 4 m/S 758 mmHg 68%
    15:00 +9°C° 0 mm 3 m/S 758 mmHg 70%
    16:00 +8°C° 0 mm 3 m/S 758 mmHg 73%
    17:00 +8°C° 0 mm 2 m/S 758 mmHg 77%
    18:00 +7°C° 0 mm 2 m/S 758 mmHg 82%
    19:00 +6°C° 0 mm 2 m/S 759 mmHg 86%
    20:00 +6°C° 0 mm 2 m/S 759 mmHg 87%
    21:00 +7°C° 0 mm 1 m/S 759 mmHg 87%
    22:00 +7°C° 0 mm 1 m/S 759 mmHg 88%
    23:00 +6°C° 0 mm 1 m/S 759 mmHg 88%

    Morgen, 18 Februar, Montag

    Zeit Temperatur Niederschläge Wind Luftdruck Luftfeuchtigkeit
    00:00 +6°C° 0 mm 1 m/S 759 mmHg 88%
    01:00 +6°C° 0 mm 1 m/S 759 mmHg 88%
    02:00 +6°C° 0 mm 1 m/S 759 mmHg 88%
    03:00 +6°C° 0 mm 1 m/S 759 mmHg 88%
    04:00 +5°C° 0 mm 0 m/S 758 mmHg 88%
    05:00 +5°C° 0 mm 1 m/S 759 mmHg 89%
    06:00 +5°C° 0 mm 1 m/S 759 mmHg 89%
    07:00 +5°C° 0 mm 1 m/S 759 mmHg 90%
    08:00 +5°C° 0 mm 2 m/S 759 mmHg 87%
    09:00 +6°C° 0 mm 2 m/S 759 mmHg 84%
    10:00 +6°C° 0 mm 2 m/S 759 mmHg 81%
    11:00 +7°C° 0 mm 2 m/S 758 mmHg 76%
    12:00 +8°C° 0 mm 2 m/S 758 mmHg 72%
    13:00 +9°C° 0 mm 2 m/S 758 mmHg 68%
    14:00 +9°C° 0 mm 2 m/S 757 mmHg 68%
    15:00 +9°C° 0 mm 2 m/S 757 mmHg 69%
    16:00 +9°C° 0 mm 2 m/S 757 mmHg 69%
    17:00 +8°C° 0 mm 2 m/S 757 mmHg 73%
    18:00 +7°C° 0 mm 3 m/S 757 mmHg 77%
    19:00 +5°C° 0 mm 3 m/S 757 mmHg 82%
    20:00 +4°C° 0 mm 3 m/S 757 mmHg 81%
    21:00 +4°C° 0 mm 3 m/S 756 mmHg 81%
    22:00 +3°C° 0 mm 3 m/S 756 mmHg 81%
    23:00 +3°C° 0 mm 3 m/S 756 mmHg 80%

    übermorgen, 19 Februar, Dienstag

    Zeit Temperatur Niederschläge Wind Luftdruck Luftfeuchtigkeit
    00:00 +3°C° 0 mm 3 m/S 756 mmHg 78%
    01:00 +2°C° 0 mm 3 m/S 756 mmHg 77%
    02:00 +2°C° 0 mm 3 m/S 756 mmHg 79%
    03:00 +2°C° 0 mm 3 m/S 755 mmHg 80%
    04:00 +1°C° 0 mm 3 m/S 755 mmHg 81%
    05:00 +1°C° 0 mm 3 m/S 755 mmHg 83%
    06:00 +1°C° 0 mm 3 m/S 755 mmHg 84%
    07:00 +1°C° 0 mm 3 m/S 754 mmHg 86%
    08:00 +2°C° 0 mm 3 m/S 754 mmHg 79%
    09:00 +3°C° 0 mm 3 m/S 754 mmHg 73%
    10:00 +5°C° 0 mm 4 m/S 754 mmHg 66%
    11:00 +6°C° 0 mm 4 m/S 754 mmHg 62%
    12:00 +7°C° 0 mm 4 m/S 753 mmHg 58%
    13:00 +10°C° 0 mm 4 m/S 753 mmHg 53%
    14:00 +8°C° 0 mm 4 m/S 753 mmHg 55%
    15:00 +8°C° 0 mm 4 m/S 752 mmHg 56%
    16:00 +9°C° 0 mm 3 m/S 752 mmHg 57%
    17:00 +8°C° 0 mm 3 m/S 752 mmHg 61%
    18:00 +7°C° 0 mm 3 m/S 752 mmHg 65%
    19:00 +5°C° 0 mm 4 m/S 752 mmHg 69%
    20:00 +5°C° 0 mm 4 m/S 752 mmHg 70%
    21:00 +5°C° 0 mm 4 m/S 752 mmHg 71%
    22:00 +5°C° 0 mm 4 m/S 753 mmHg 72%
    23:00 +5°C° 0 mm 4 m/S 753 mmHg 78%

    20 Februar, Mittwoch

    Zeit Temperatur Niederschläge Wind Luftdruck Luftfeuchtigkeit
    00:00 +5°C° 0 mm 4 m/S 753 mmHg 83%
    01:00 +4°C° 0 mm 4 m/S 753 mmHg 89%
    02:00 +4°C° 0 mm 4 m/S 754 mmHg 89%
    03:00 +3°C° 0 mm 4 m/S 754 mmHg 89%
    04:00 +3°C° 0 mm 4 m/S 754 mmHg 89%
    05:00 +3°C° 0 mm 4 m/S 754 mmHg 89%
    06:00 +1°C° 0 mm 4 m/S 754 mmHg 89%
    07:00 +1°C° 0 mm 5 m/S 755 mmHg 90%
    08:00 +2°C° 0 mm 5 m/S 755 mmHg 86%
    09:00 +3°C° 0 mm 6 m/S 755 mmHg 83%
    10:00 +4°C° 0 mm 6 m/S 755 mmHg 79%
    11:00 +4°C° 0 mm 6 m/S 755 mmHg 78%
    12:00 +4°C° 0 mm 7 m/S 755 mmHg 76%
    13:00 +4°C° 0 mm 7 m/S 755 mmHg 74%
    14:00 +4°C° 0 mm 6 m/S 755 mmHg 73%
    15:00 +4°C° 0 mm 6 m/S 755 mmHg 71%
    16:00 +4°C° 0 mm 6 m/S 756 mmHg 70%
    17:00 +5°C° 0 mm 5 m/S 756 mmHg 73%
    18:00 +4°C° 0 mm 4 m/S 756 mmHg 76%
    19:00 +4°C° 0 mm 4 m/S 756 mmHg 80%
    20:00 +4°C° 0.2 mm 4 m/S 756 mmHg 81%
    21:00 +3°C° 0.2 mm 5 m/S 756 mmHg 82%
    22:00 +3°C° 0.2 mm 5 m/S 756 mmHg 83%
    23:00 +3°C° 0 mm 5 m/S 756 mmHg 84%

    21 Februar, Donnerstag

    Zeit Temperatur Niederschläge Wind Luftdruck Luftfeuchtigkeit
    00:00 +3°C° 0 mm 5 m/S 756 mmHg 84%
    01:00 +4°C° 0 mm 4 m/S 756 mmHg 85%
    02:00 +4°C° 0 mm 4 m/S 756 mmHg 85%
    03:00 +4°C° 0 mm 4 m/S 756 mmHg 85%
    04:00 +4°C° 0 mm 4 m/S 756 mmHg 85%
    05:00 +4°C° 0.1 mm 4 m/S 756 mmHg 86%
    06:00 +4°C° 0.1 mm 4 m/S 756 mmHg 87%
    07:00 +4°C° 0.1 mm 4 m/S 756 mmHg 88%
    08:00 +4°C° 0.2 mm 4 m/S 756 mmHg 86%
    09:00 +3°C° 0.2 mm 5 m/S 756 mmHg 83%
    10:00 +5°C° 0.2 mm 5 m/S 756 mmHg 81%
    11:00 +5°C° 0 mm 5 m/S 756 mmHg 77%
    12:00 +6°C° 0 mm 5 m/S 756 mmHg 73%
    13:00 +7°C° 0 mm 5 m/S 755 mmHg 69%
    14:00 +7°C° 0 mm 5 m/S 755 mmHg 70%
    15:00 +7°C° 0 mm 4 m/S 755 mmHg 72%
    16:00 +7°C° 0 mm 4 m/S 755 mmHg 73%
    17:00 +6°C° 0.7 mm 4 m/S 755 mmHg 78%
    18:00 +5°C° 0.7 mm 4 m/S 755 mmHg 84%
    19:00 +5°C° 0.7 mm 4 m/S 755 mmHg 89%
    20:00 +5°C° 0.6 mm 3 m/S 755 mmHg 90%
    21:00 +5°C° 0.6 mm 3 m/S 755 mmHg 91%
    22:00 +5°C° 0.6 mm 3 m/S 755 mmHg 93%
    23:00 +5°C° 0.1 mm 3 m/S 755 mmHg 93%

    22 Februar, Freitag

    Zeit Temperatur Niederschläge Wind Luftdruck Luftfeuchtigkeit
    00:00 +5°C° 0.1 mm 3 m/S 755 mmHg 93%
    01:00 +5°C° 0.1 mm 3 m/S 755 mmHg 94%
    02:00 +5°C° 0.7 mm 4 m/S 754 mmHg 94%
    03:00 +5°C° 0.7 mm 4 m/S 754 mmHg 94%
    04:00 +5°C° 0.7 mm 4 m/S 754 mmHg 94%
    05:00 +4°C° 0.9 mm 4 m/S 754 mmHg 93%
    06:00 +4°C° 0.9 mm 4 m/S 754 mmHg 93%
    07:00 +4°C° 0.9 mm 4 m/S 755 mmHg 93%
    08:00 +2°C° 0.3 mm 6 m/S 756 mmHg 88%
    09:00 -1°C° 0.3 mm 7 m/S 757 mmHg 83%
    10:00 -3°C° 0.3 mm 9 m/S 758 mmHg 78%
    11:00 -2°C° 0 mm 8 m/S 759 mmHg 73%
    12:00 -2°C° 0 mm 8 m/S 760 mmHg 68%
    13:00 -2°C° 0 mm 7 m/S 762 mmHg 63%
    14:00 -2°C° 0 mm 7 m/S 763 mmHg 61%
    15:00 -3°C° 0 mm 7 m/S 764 mmHg 58%
    16:00 -3°C° 0 mm 7 m/S 765 mmHg 56%
    17:00 -4°C° 0 mm 6 m/S 766 mmHg 53%
    18:00 -4°C° 0 mm 6 m/S 767 mmHg 50%
    19:00 -5°C° 0 mm 6 m/S 769 mmHg 48%
    20:00 -5°C° 0 mm 5 m/S 769 mmHg 46%
    21:00 -6°C° 0 mm 5 m/S 770 mmHg 43%
    22:00 -6°C° 0 mm 5 m/S 771 mmHg 41%
    23:00 -5°C° 0 mm 4 m/S 771 mmHg 41%
    Mehr zeigen